Multibeam Report for CE03_02


Ship Name: Celtic Explorer
Chief Scientist: Zhilin, D.
Geological Survey of Ireland
Source Organization: Geological Survey of Ireland (GSI)
Start Date: 2003-05-27
End Date: 2003-06-23


View ISO Metadata

Visit the full NCEI Bathymetry Viewer


Multibeam Bathymetry

Cruise Details

Project: Irish National Seabed Survey
Instrument: Simrad EM1002

Data Quality

Number of Files: 165
Number of Records: 2626975
BATHYMETRY DATA Quantity Percentage
Number of Beams 291594225 100%
Number of Good Beams 291215990 99.87%
Number of Zero Beams 378235 0.13%
Number of Flagged Beams 0 0%
AMPLITUDE DATA Quantity Percentage
Number of Beams 291594225 100%
Number of Good Beams 291215990 99.87%
Number of Zero Beams 378235 0.13%
Number of Flagged Beams 0 0%
SIDESCAN DATA Quantity Percentage
Number of Pixels 2690022400 100%
Number of Good Pixels 2261010301 84.05%
Number of Zero Pixels 0 0%
Number of Flagged Pixels 429012099 15.95%

Navigation Totals

Total Time: 454.3571 hours
Total Track Length: 6864.116 km
Average Speed: 15.107 km/hr (8.1571 knots)

Cruise Bounds

Northern Extent: 56.277206
Southern Extent: 54.57751
Western Extent: -10.220774
Eastern Extent: -7.239412

Limits

Minimum Sonar Depth 1.56 Maximum Sonar Depth 9.47
Minimum Altitude 0 Maximum Altitude 238.89
Minimum Depth 12.83 Maximum Depth 250.65
Minimum Amplitude -64 Maximum Amplitude 15.5
Minimum Sidescan -64 Maximum Sidescan 46.66

File Information

Full Resolution Bathymetry as collected (raw): 164

Files File Size Description
0001_20030531_121652_raw.mb56.gz 210.72MB Simrad multibeam vendor format
0111_20030527_040703_raw.mb56.gz 62.91MB Simrad multibeam vendor format
0112_20030527_063108_raw.mb56.gz 63.69MB Simrad multibeam vendor format
0113_20030527_083820_raw.mb56.gz 60.47MB Simrad multibeam vendor format
0114_20030527_112657_raw.mb56.gz 56.68MB Simrad multibeam vendor format
0115_20030527_132549_raw.mb56.gz 45.82MB Simrad multibeam vendor format
0116_20030527_163532_raw.mb56.gz 78.37MB Simrad multibeam vendor format
0117_20030527_192215_raw.mb56.gz 223.11MB Simrad multibeam vendor format
0118_20030528_055508_raw.mb56.gz 54.19MB Simrad multibeam vendor format
0119_20030530_213231_raw.mb56.gz 102.66MB Simrad multibeam vendor format
0120_20030531_010948_raw.mb56.gz 154.39MB Simrad multibeam vendor format
0121_20030531_051037_raw.mb56.gz 110.11MB Simrad multibeam vendor format
0122_20030531_093711_raw.mb56.gz 74.89MB Simrad multibeam vendor format
0124_20030531_205310_raw.mb56.gz 164.03MB Simrad multibeam vendor format
0125_20030601_013725_raw.mb56.gz 7.78MB Simrad multibeam vendor format
0126_20030601_020230_raw.mb56.gz 71.43MB Simrad multibeam vendor format
0127_20030601_052459_raw.mb56.gz 115.66MB Simrad multibeam vendor format
0128_20030601_090011_raw.mb56.gz 84.85MB Simrad multibeam vendor format
0129_20030601_120257_raw.mb56.gz 3.55MB Simrad multibeam vendor format
0130_20030601_143524_raw.mb56.gz 125.87MB Simrad multibeam vendor format
0131_20030601_193338_raw.mb56.gz 58.74MB Simrad multibeam vendor format
0132_20030601_220929_raw.mb56.gz 246.99MB Simrad multibeam vendor format
0133_20030602_055357_raw.mb56.gz 7.88MB Simrad multibeam vendor format
0134_20030602_063349_raw.mb56.gz 263.05MB Simrad multibeam vendor format
0135_20030602_140005_raw.mb56.gz 72.04MB Simrad multibeam vendor format
0136_20030602_161109_raw.mb56.gz 4.10MB Simrad multibeam vendor format
0137_20030602_172052_raw.mb56.gz 182.57MB Simrad multibeam vendor format
0138_20030602_225229_raw.mb56.gz 46.39MB Simrad multibeam vendor format
0139_20030603_003055_raw.mb56.gz 223.51MB Simrad multibeam vendor format
0140_20030603_065729_raw.mb56.gz 7.47MB Simrad multibeam vendor format
0141_20030603_084204_raw.mb56.gz 216.02MB Simrad multibeam vendor format
0142_20030603_161206_raw.mb56.gz 52.39MB Simrad multibeam vendor format
0143_20030603_175837_raw.mb56.gz 218.23MB Simrad multibeam vendor format
0144_20030604_003226_raw.mb56.gz 199.95MB Simrad multibeam vendor format
0145_20030604_064254_raw.mb56.gz 54.41MB Simrad multibeam vendor format
0146_20030604_093415_raw.mb56.gz 2.82MB Simrad multibeam vendor format
0147_20030604_100258_raw.mb56.gz 154.45MB Simrad multibeam vendor format
0148_20030604_144831_raw.mb56.gz 41.05MB Simrad multibeam vendor format
0149_20030604_164626_raw.mb56.gz 151.67MB Simrad multibeam vendor format
0150_20030604_212012_raw.mb56.gz 93.35MB Simrad multibeam vendor format
0153_20030605_012431_raw.mb56.gz 210.82MB Simrad multibeam vendor format
0154_20030605_082136_raw.mb56.gz 198.48MB Simrad multibeam vendor format
0155_20030605_151408_raw.mb56.gz 62.86MB Simrad multibeam vendor format
0156_20030605_172005_raw.mb56.gz 203.38MB Simrad multibeam vendor format
0157_20030605_231740_raw.mb56.gz 181.62MB Simrad multibeam vendor format
0158_20030606_045004_raw.mb56.gz 50.62MB Simrad multibeam vendor format
0159_20030606_063233_raw.mb56.gz 106.40MB Simrad multibeam vendor format
0160_20030606_094942_raw.mb56.gz 101.54MB Simrad multibeam vendor format
0161_20030606_125928_raw.mb56.gz 88.72MB Simrad multibeam vendor format
0162_20030606_162914_raw.mb56.gz 238.99MB Simrad multibeam vendor format
0163_20030606_233346_raw.mb56.gz 279.75MB Simrad multibeam vendor format
0164_20030607_081210_raw.mb56.gz 241.56MB Simrad multibeam vendor format
0165_20030607_155249_raw.mb56.gz 126.55MB Simrad multibeam vendor format
0166_20030607_192537_raw.mb56.gz 291.32MB Simrad multibeam vendor format
0167_20030608_035219_raw.mb56.gz 111.50MB Simrad multibeam vendor format
0168_20030608_112055_raw.mb56.gz 154.63MB Simrad multibeam vendor format
0169_20030608_155022_raw.mb56.gz 101.97MB Simrad multibeam vendor format
0170_20030608_194959_raw.mb56.gz 113.91MB Simrad multibeam vendor format
0171_20030608_230956_raw.mb56.gz 96.80MB Simrad multibeam vendor format
0172_20030609_020527_raw.mb56.gz 103.40MB Simrad multibeam vendor format
0173_20030609_050134_raw.mb56.gz 139.69MB Simrad multibeam vendor format
0174_20030609_094949_raw.mb56.gz 109.38MB Simrad multibeam vendor format
0175_20030609_125923_raw.mb56.gz 272.57MB Simrad multibeam vendor format
0176_20030609_203852_raw.mb56.gz 291.86MB Simrad multibeam vendor format
0177_20030610_050609_raw.mb56.gz 299.70MB Simrad multibeam vendor format
0178_20030610_133840_raw.mb56.gz 189.06MB Simrad multibeam vendor format
0179_20030610_194356_raw.mb56.gz 115.27MB Simrad multibeam vendor format
0180_20030610_225659_raw.mb56.gz 286.08MB Simrad multibeam vendor format
0181_20030611_064520_raw.mb56.gz 305.28MB Simrad multibeam vendor format
0182_20030611_155758_raw.mb56.gz 267.54MB Simrad multibeam vendor format
0183_20030611_232020_raw.mb56.gz 211.70MB Simrad multibeam vendor format
0184_20030612_050339_raw.mb56.gz 70.96MB Simrad multibeam vendor format
0185_20030612_132009_raw.mb56.gz 134.58MB Simrad multibeam vendor format
0186_20030612_175721_raw.mb56.gz 26.95MB Simrad multibeam vendor format
0187_20030612_194717_raw.mb56.gz 30.17MB Simrad multibeam vendor format
0188_20030612_214116_raw.mb56.gz 30.82MB Simrad multibeam vendor format
0189_20030612_232444_raw.mb56.gz 35.12MB Simrad multibeam vendor format
0190_20030613_012234_raw.mb56.gz 38.16MB Simrad multibeam vendor format
0191_20030613_032834_raw.mb56.gz 30.80MB Simrad multibeam vendor format
0192_20030613_043144_raw.mb56.gz 57.34MB Simrad multibeam vendor format
0193_20030613_061020_raw.mb56.gz 20.85MB Simrad multibeam vendor format
0194_20030613_070027_raw.mb56.gz 12.80MB Simrad multibeam vendor format
0195_20030613_074435_raw.mb56.gz 242.82MB Simrad multibeam vendor format
0196_20030613_150203_raw.mb56.gz 10.72MB Simrad multibeam vendor format
0197_20030613_160754_raw.mb56.gz 100.14MB Simrad multibeam vendor format
0198_20030613_185632_raw.mb56.gz 263.51MB Simrad multibeam vendor format
0199_20030614_020536_raw.mb56.gz 138.59MB Simrad multibeam vendor format
0200_20030614_053010_raw.mb56.gz 4.64MB Simrad multibeam vendor format
0201_20030614_072133_raw.mb56.gz 173.08MB Simrad multibeam vendor format
0202_20030614_122216_raw.mb56.gz 59.15MB Simrad multibeam vendor format
0203_20030614_141612_raw.mb56.gz 72.18MB Simrad multibeam vendor format
0204_20030614_162926_raw.mb56.gz 291.65MB Simrad multibeam vendor format
0205_20030615_003603_raw.mb56.gz 324.21MB Simrad multibeam vendor format
0206_20030615_095017_raw.mb56.gz 260.88MB Simrad multibeam vendor format
0207_20030615_170316_raw.mb56.gz 36.93MB Simrad multibeam vendor format
0208_20030615_181008_raw.mb56.gz 44.04MB Simrad multibeam vendor format
0209_20030615_193932_raw.mb56.gz 13.90MB Simrad multibeam vendor format
0210_20030615_200855_raw.mb56.gz 265.38MB Simrad multibeam vendor format
0211_20030616_032626_raw.mb56.gz 287.46MB Simrad multibeam vendor format
0212_20030616_112010_raw.mb56.gz 186.92MB Simrad multibeam vendor format
0213_20030616_165339_raw.mb56.gz 121.13MB Simrad multibeam vendor format
0214_20030616_201735_raw.mb56.gz 293.85MB Simrad multibeam vendor format
0215_20030617_040111_raw.mb56.gz 126.73MB Simrad multibeam vendor format
0216_20030617_075609_raw.mb56.gz 108.34MB Simrad multibeam vendor format
0217_20030617_105818_raw.mb56.gz 19.26MB Simrad multibeam vendor format
0218_20030617_113219_raw.mb56.gz 301.90MB Simrad multibeam vendor format
0219_20030617_193307_raw.mb56.gz 6.26MB Simrad multibeam vendor format
0220_20030617_205258_raw.mb56.gz 312.23MB Simrad multibeam vendor format
0221_20030618_050300_raw.mb56.gz 104.91MB Simrad multibeam vendor format
0222_20030618_073938_raw.mb56.gz 65.48MB Simrad multibeam vendor format
0223_20030618_105210_raw.mb56.gz 38.22MB Simrad multibeam vendor format
0224_20030618_131721_raw.mb56.gz 39.48MB Simrad multibeam vendor format
0225_20030618_154955_raw.mb56.gz 44.60MB Simrad multibeam vendor format
0226_20030618_181523_raw.mb56.gz 47.90MB Simrad multibeam vendor format
0227_20030618_210639_raw.mb56.gz 45.41MB Simrad multibeam vendor format
0228_20030619_000735_raw.mb56.gz 57.94MB Simrad multibeam vendor format
0229_20030619_035935_raw.mb56.gz 72.22MB Simrad multibeam vendor format
0230_20030619_085032_raw.mb56.gz 66.86MB Simrad multibeam vendor format
0231_20030619_111204_raw.mb56.gz 13.18MB Simrad multibeam vendor format
0233_20030619_125526_raw.mb56.gz 59.36MB Simrad multibeam vendor format
0234_20030619_163509_raw.mb56.gz 64.74MB Simrad multibeam vendor format
0235_20030619_185645_raw.mb56.gz 29.26MB Simrad multibeam vendor format
0236_20030619_204326_raw.mb56.gz 27.88MB Simrad multibeam vendor format
0237_20030619_235117_raw.mb56.gz 97.87MB Simrad multibeam vendor format
0238_20030620_021615_raw.mb56.gz 3.34MB Simrad multibeam vendor format
0239_20030620_023308_raw.mb56.gz 12.93MB Simrad multibeam vendor format
0240_20030620_025912_raw.mb56.gz 53.84MB Simrad multibeam vendor format
0242_20030620_045725_raw.mb56.gz 85.68MB Simrad multibeam vendor format
0243_20030620_092713_raw.mb56.gz 82.78MB Simrad multibeam vendor format
0244_20030620_120128_raw.mb56.gz 10.38MB Simrad multibeam vendor format
0245_20030620_123208_raw.mb56.gz 10.27MB Simrad multibeam vendor format
0246_20030620_125108_raw.mb56.gz 15.54MB Simrad multibeam vendor format
0247_20030620_131415_raw.mb56.gz 6.45MB Simrad multibeam vendor format
0248_20030620_132330_raw.mb56.gz 11.31MB Simrad multibeam vendor format
0250_20030620_134557_raw.mb56.gz 14.08MB Simrad multibeam vendor format
0251_20030620_142216_raw.mb56.gz 56.64MB Simrad multibeam vendor format
0252_20030620_154014_raw.mb56.gz 101.18MB Simrad multibeam vendor format
0253_20030620_181850_raw.mb56.gz 3.23MB Simrad multibeam vendor format
0254_20030620_183444_raw.mb56.gz 5.23MB Simrad multibeam vendor format
0255_20030620_194818_raw.mb56.gz 9.41MB Simrad multibeam vendor format
0256_20030620_201506_raw.mb56.gz 316.90MB Simrad multibeam vendor format
0257_20030621_045339_raw.mb56.gz 36.88MB Simrad multibeam vendor format
0258_20030621_072759_raw.mb56.gz 34.52MB Simrad multibeam vendor format
0259_20030621_084336_raw.mb56.gz 63.48MB Simrad multibeam vendor format
0260_20030621_114511_raw.mb56.gz 13.34MB Simrad multibeam vendor format
0261_20030621_134742_raw.mb56.gz 53.65MB Simrad multibeam vendor format
0262_20030621_154030_raw.mb56.gz 39.60MB Simrad multibeam vendor format
0263_20030621_170203_raw.mb56.gz 293.55MB Simrad multibeam vendor format
0264_20030622_010549_raw.mb56.gz 320.32MB Simrad multibeam vendor format
0265_20030622_094920_raw.mb56.gz 42.31MB Simrad multibeam vendor format
0266_20030622_111721_raw.mb56.gz 71.97MB Simrad multibeam vendor format
0267_20030622_131917_raw.mb56.gz 61.86MB Simrad multibeam vendor format
0268_20030622_154508_raw.mb56.gz 7.28MB Simrad multibeam vendor format
0269_20030622_160357_raw.mb56.gz 11.13MB Simrad multibeam vendor format
0270_20030622_163420_raw.mb56.gz 18.05MB Simrad multibeam vendor format
0271_20030622_172537_raw.mb56.gz 59.33MB Simrad multibeam vendor format
0272_20030622_192029_raw.mb56.gz 38.75MB Simrad multibeam vendor format
0273_20030622_203349_raw.mb56.gz 69.12MB Simrad multibeam vendor format
0274_20030622_222810_raw.mb56.gz 65.66MB Simrad multibeam vendor format
0275_20030623_005654_raw.mb56.gz 90.02MB Simrad multibeam vendor format
0276_20030623_033857_raw.mb56.gz 18.75MB Simrad multibeam vendor format
0277_20030623_042708_raw.mb56.gz 37.18MB Simrad multibeam vendor format
0278_20030623_052821_raw.mb56.gz 68.51MB Simrad multibeam vendor format
0279_20030623_074048_raw.mb56.gz 84.24MB Simrad multibeam vendor format

Metadata Files: 1

Files File Size Description
CE03_02_Multibeam.xml NGDC created ISO metadata